Location: Moscow
(55.7500°N, 37.5830°E)
Time: 20:37:11
(UTC+03:00)

Tiros 1 - Pass Details

Date: 04 December 2021
Orbit: 629 x 664 km, 48.4° (Epoch: 19 January)

Event Time Altitude Azimuth Distance (km) Brightness Sun altitude
Rises 18:30:47 0° 197° (SSW) 2,915 10.9 -19.8°
Reaches altitude 10° 18:34:28 10° 167° (SSE) 2,018 9.7 -20.3°
Enters shadow 18:35:40 12° 152° (SSE) 1,896 9.4 -20.5°
